Hourly Data Report for March 07, 2012

All times are specified in Local Standard Time (LST). Add 1 hour to adjust for Daylight Saving Time where and when it is observed.

HALIFAX STANFIELD INT'L A
NOVA SCOTIA

44°52'48.060" N
63°30'00.050" W
145.40 m
8202250
71395
YHZ

Download Data

Hourly Data (March 2012)
Hourly Data Report for March 7, 2012
TIME Temp Definition
°C
Dew Point Definition
°C
Rel Hum Definition
%
Wind Dir Definition
10's deg

Wind Spd Definition
km/h
Visibility Definition
km
Stn Press Definition
kPa
Hmdx Definition


Wind Chill Definition


Weather Definition


00:00 -8.1 -10.9 80 31 20 24.1 101.28   -15 Clear
01:00 -8.2 -11.1 80 31 19 24.1 101.34   -15 Clear
02:00 -8.6 -11.4 80 30 15 24.1 101.43   -15 Mainly Clear
03:00 -9.3 -11.2 86 29 11 24.1 101.47   -15 Mainly Clear
04:00 -9.7 -11.4 87 28 9 24.1 101.52   -15 Clear
05:00 -10.7 -11.8 92 29 6 24.1 101.58   -14 Clear
06:00 -9.2 -10.7 89 27 7 24.1 101.66   -13 Clear
07:00 -8.4 -9.7 90 26 11 24.1 101.69   -14 Mainly Clear
08:00 -5.2 -7.7 83 27 13 24.1 101.72   -10 Mostly Cloudy
09:00 -3.3 -9.4 63 25 7 24.1 101.71   -6 Cloudy
10:00 -1.9 -8.1 63 20 13 24.1 101.70   -6 Cloudy
11:00 -0.8 -7.7 59 22 17 24.1 101.62   -6 Cloudy
12:00 0.4 -8.0 53 21 22 24.1 101.56     Cloudy
13:00 0.8 -8.5 50 22 26 24.1 101.46     Cloudy
14:00 1.6 -6.7 54 22 22 24.1 101.37     Cloudy
15:00 1.2 -5.3 62 20 28 24.1 101.29     Cloudy
16:00 0.7 -4.3 69 19 30 24.1 101.20     Cloudy
17:00 1.4 -3.6 69 19 33 24.1 101.12     Mainly Clear
18:00 1.2 -2.6 76 19 30 24.1 101.04     Mostly Cloudy
19:00 1.3 -1.4 82 19 32 24.1 100.96     Mostly Cloudy
20:00 1.3 -0.9 85 20 30 24.1 100.88     Cloudy
21:00 1.7 -0.2 87 20 26 24.1 100.84     Cloudy
22:00 2.0 0.7 91 20 28 16.1 100.76     Cloudy
23:00 2.3 1.5 94 21 22 11.3 100.68     Cloudy

Notes on Data Quality.

Legend

  • E = Estimated
  • M = Missing
  • NA = Not Available
Date modified: